Theta_e
308 308 307 308 307 308 308 308 308 309 309 310 310 310 311 311 312 312 312 313 314 314 313 312 313 315 318 319 318 318 313 315 317 318 316 318 317 318 318 318 318 318 320 322 323
308 307 307 307 307 307 308 308 308 309 309 309 310 310 310 311 312 312 315 313 313 312 312 312 314 315 318 319 318 316 312 316 315 315 315 317 318 317 317 317 318 318 317 320 322
307 307 307 307 307 307 308 308 308 309 309 309 309 310 310 311 314 315 315 312 312 311 312 314 314 315 315 318 318 317 315 315 315 316 317 317 317 317 316 314 316 317 317 321 322
307 307 307 307 307 307 308 308 308 308 308 309 309 309 310 312 315 315 315 313 312 311 311 313 314 315 314 314 317 315 315 315 316 316 316 316 317 316 316 317 317 317 317 318 321
307 307 307 307 307 307 307 308 308 308 308 308 308 309 310 313 315 313 313 313 313 312 310 311 314 314 314 314 315 313 314 314 316 315 316 316 316 316 316 317 317 317 318 318 318
306 307 307 307 307 307 307 308 308 308 308 308 308 309 310 315 314 314 311 311 312 312 311 313 314 314 315 315 313 315 315 314 315 315 315 314 314 315 316 317 317 316 317 318 318
307 307 307 307 307 307 308 308 308 308 309 309 309 309 309 312 312 314 311 310 311 312 312 312 313 314 315 314 315 315 314 313 314 315 315 315 310 312 315 316 317 317 316 316 317
307 307 307 307 308 308 308 308 308 309 309 309 308 309 311 311 310 314 313 311 311 312 313 312 312 315 317 315 315 314 313 312 313 313 315 313 308 311 315 315 316 316 316 316 316
307 307 308 308 308 308 309 309 309 309 309 308 308 309 312 310 311 313 314 312 312 312 312 312 314 315 315 312 312 313 310 311 315 314 314 313 311 314 316 315 315 315 316 316 316
309 309 309 309 309 309 309 309 309 309 308 309 310 309 309 311 311 314 314 313 312 312 313 313 314 311 310 309 310 313 314 313 313 314 313 313 311 311 315 315 316 316 316 316 316
313 312 312 312 310 309 309 309 309 310 310 312 311 310 311 311 311 312 314 312 312 313 312 314 310 310 310 310 311 314 314 313 313 313 314 312 311 311 314 314 313 315 316 316 317
319 316 315 314 313 310 310 318 314 316 319 313 313 310 309 311 312 312 313 313 314 312 313 310 310 311 311 313 313 314 314 312 312 313 313 312 311 310 310 312 314 314 314 315 316
319 320 319 318 317 315 319 320 318 319 318 320 319 316 311 311 314 312 313 314 314 313 312 311 313 312 314 314 314 314 313 312 312 312 311 310 309 310 311 313 314 314 315 315 315
318 318 319 319 318 317 320 320 320 318 317 319 317 318 316 314 315 314 313 314 313 313 311 313 312 313 313 313 312 313 312 312 312 311 310 311 309 310 312 310 309 313 315 316 316
314 316 317 320 319 320 319 320 320 317 316 315 314 315 315 316 314 313 313 314 311 311 310 311 311 312 313 313 311 312 313 313 313 313 314 312 310 309 309 310 309 311 314 315 317
312 312 313 315 317 320 320 320 317 316 315 314 312 312 314 312 312 312 313 313 313 313 312 311 312 312 311 311 311 311 313 313 312 311 310 310 309 308 309 310 312 313 315 316 316
311 311 312 311 313 314 316 319 317 314 315 316 314 312 314 313 312 311 311 311 313 313 313 313 312 311 312 311 311 313 310 309 312 312 310 309 309 309 310 310 312 314 314 314 314
305 311 313 311 313 313 314 314 318 316 317 314 314 313 315 314 313 312 312 312 311 313 312 314 315 311 310 311 312 311 309 309 311 314 312 308 311 312 309 312 313 314 314 315 316
298 304 308 312 314 312 312 312 316 315 316 315 313 314 315 313 312 312 311 312 311 311 315 314 315 310 310 311 311 311 313 310 311 300 308 309 309 309 309 309 313 313 314 315 314
298 298 306 309 313 313 312 313 313 314 315 316 316 314 314 313 313 312 312 311 313 311 312 313 314 310 310 311 311 311 310 312 310 309 310 309 309 311 310 310 311 313 315 314 315
299 296 300 307 311 313 313 312 314 313 313 316 316 318 315 314 313 313 313 311 311 311 312 312 312 311 310 310 310 310 311 311 311 310 311 309 310 307 309 311 312 313 314 314 315
299 298 300 301 310 310 311 311 310 311 312 313 313 314 315 316 315 315 315 312 311 311 311 312 311 309 310 309 309 309 310 310 311 310 308 309 313 309 308 309 311 312 314 314 314
300 300 299 307 308 309 308 310 309 310 312 313 313 312 311 313 315 315 314 312 312 311 313 312 311 305 310 311 311 311 310 309 309 306 309 308 313 309 309 310 312 312 314 314 314
300 298 300 302 304 304 307 307 309 308 309 310 310 311 311 311 312 313 315 312 312 311 313 313 312 309 310 314 314 314 313 314 315 307 311 311 311 311 310 311 312 313 313 314 314
300 297 300 297 300 303 303 305 307 306 308 309 308 309 311 311 311 311 312 311 311 311 310 312 313 312 312 312 313 315 314 314 315 315 316 314 315 315 313 312 312 312 313 313 313
300 298 299 299 299 300 301 303 304 305 306 307 307 307 308 310 310 310 310 311 310 310 309 309 309 309 309 310 311 310 310 310 311 312 313 313 314 312 312 312 311 312 313 313 312
297 298 299 299 298 299 299 301 301 303 304 305 305 305 305 306 306 306 307 308 308 308 308 308 307 307 300 306 305 304 306 307 307 307 309 310 310 309 310 311 311 310 309 308 308
Wind_Speed
15 13 12 12 10 9 9 8 7 6 5 5 3 2 2 2 3 4 6 6 5 6 7 7 6 8 7 6 5 1 4 2 4 3 5 10 3 2 6 12 5 8 8 9 14
16 13 12 11 10 10 8 7 7 5 5 4 3 3 2 2 3 6 5 6 7 6 8 8 5 9 3 3 4 4 4 3 2 2 5 8 6 8 5 8 5 8 8 10 14
16 15 13 11 10 10 9 8 7 6 5 5 4 4 3 3 3 2 6 5 7 7 9 10 4 6 2 5 4 4 4 2 3 5 6 5 3 7 7 3 12 16 16 19 19
16 15 14 12 10 10 9 8 8 6 6 5 4 3 4 6 3 2 5 7 7 8 8 9 8 4 1 3 4 1 1 3 1 3 3 3 1 2 10 4 3 13 17 21 22
16 15 14 13 11 10 9 8 8 6 5 4 4 4 6 4 4 2 6 7 8 9 9 10 8 3 1 3 4 2 0 3 2 1 1 2 4 5 9 14 13 9 13 22 21
16 15 13 12 12 11 10 9 8 6 5 4 4 4 6 2 2 4 5 8 9 10 10 11 4 4 1 4 4 1 3 1 2 2 2 1 3 1 8 11 16 16 14 19 21
13 13 13 11 10 10 9 8 7 6 5 4 3 3 5 5 3 6 6 7 9 11 11 12 7 5 5 3 2 1 2 3 6 6 1 1 6 9 18 12 11 19 16 18 21
13 11 12 11 10 10 10 9 9 7 4 3 2 3 3 5 6 8 8 7 8 9 8 10 8 8 3 6 3 2 3 1 3 10 3 4 7 8 7 15 18 14 15 21 22
12 11 11 10 9 9 9 8 7 5 4 3 3 3 2 4 8 10 10 8 8 8 7 10 10 4 5 5 4 3 2 5 2 7 4 3 5 5 5 3 9 17 16 18 23
12 11 11 9 8 8 8 7 5 5 5 4 4 3 5 6 8 11 12 11 7 11 9 6 3 4 2 4 5 4 3 3 4 5 4 4 9 11 26 19 22 22 22 23 22
11 11 10 9 8 8 7 6 5 3 8 4 5 3 6 6 9 12 13 11 11 6 4 2 4 5 9 7 5 4 2 0 1 3 4 6 9 11 23 24 21 26 27 30 28
8 9 8 9 8 8 8 5 6 5 2 10 6 5 4 9 5 12 16 8 6 4 5 5 4 9 5 4 4 3 2 4 1 1 2 6 11 12 13 22 31 34 33 32 30
12 9 10 10 10 10 12 9 9 6 2 5 12 11 8 11 3 13 18 6 4 5 6 6 4 7 5 2 3 1 3 3 5 3 3 5 8 6 6 10 19 25 28 27 29
13 12 12 12 10 11 11 10 8 8 3 4 7 7 11 8 3 9 17 6 2 9 6 4 5 4 3 4 6 3 2 4 4 4 3 4 6 6 6 12 6 21 20 22 23
11 8 11 11 8 13 11 11 8 6 2 2 4 7 12 9 11 7 18 6 6 6 6 6 5 4 3 5 5 6 2 3 2 2 1 4 1 8 5 6 10 13 16 10 7
13 12 10 10 8 14 12 13 7 4 7 3 4 4 6 2 3 5 5 5 3 2 3 4 3 2 6 3 0 7 5 6 5 3 3 8 8 4 4 5 1 2 9 5 6
14 17 15 15 12 12 12 12 3 5 2 5 4 6 3 5 3 4 6 6 6 5 5 2 3 3 4 5 6 3 6 1 3 2 7 4 2 7 6 8 3 3 6 8 9
11 14 18 21 13 14 9 4 6 4 6 3 5 6 6 6 4 6 7 5 4 1 4 7 5 9 6 8 8 7 8 6 6 4 5 5 7 5 8 6 2 4 9 11 17
7 10 11 10 19 15 11 1 7 4 4 6 4 4 4 5 6 5 8 7 10 10 7 6 5 2 3 3 9 5 6 5 4 1 3 5 7 7 10 8 11 17 8 16 19
6 7 10 12 14 21 5 5 5 8 6 4 5 7 6 7 4 7 8 6 6 10 8 5 2 3 1 2 2 5 4 2 2 2 4 5 6 8 9 6 7 8 8 14 17
6 5 6 11 12 10 5 5 6 4 5 8 9 6 3 5 5 4 4 4 5 4 15 5 4 2 2 5 8 3 1 2 4 5 5 2 7 6 6 8 4 4 12 18 24
5 2 3 15 5 3 3 4 2 2 3 2 1 3 4 2 5 4 7 3 6 5 7 3 4 4 6 3 3 4 6 6 4 4 4 3 14 4 11 10 11 15 27 28 22
4 2 2 16 6 4 3 5 1 3 5 4 4 2 3 6 4 7 5 3 10 5 3 2 1 2 6 4 3 2 3 5 2 3 7 5 13 3 10 17 24 23 27 25 22
4 1 2 10 3 3 4 4 6 6 4 1 1 4 2 3 3 2 3 2 5 6 8 5 2 5 5 4 3 3 5 3 1 3 9 15 22 25 10 14 22 28 25 29 31
5 4 5 3 5 3 3 2 8 6 8 11 3 5 4 4 3 5 5 3 3 7 5 3 4 0 3 3 3 3 6 6 3 6 6 9 9 28 13 15 24 22 28 27 24
7 3 4 3 11 11 5 5 7 10 7 6 5 6 7 6 5 3 4 5 5 1 3 2 1 1 5 1 3 6 11 8 11 14 13 19 21 20 36 35 24 23 26 27 22
23 8 1 3 4 6 6 4 4 4 4 8 8 4 2 2 4 9 8 6 5 7 4 5 5 3 4 3 3 6 11 16 13 11 11 13 18 17 17 18 13 16 11 20 23
Wind_Direction
187 187 182 183 185 185 185 189 193 194 183 193 191 192 214 197 171 173 166 185 208 178 172 162 149 148 156 155 156 166 67 302 278 137 155 161 117 144 104 139 158 163 148 159 165
185 186 186 180 185 183 183 186 190 185 180 188 194 202 212 196 176 183 179 207 189 178 166 139 121 145 149 134 156 116 116 227 319 60 148 174 156 174 155 136 149 169 159 167 171
186 182 184 183 183 183 187 185 188 189 185 187 191 191 190 156 146 213 211 201 181 183 178 153 144 173 213 160 168 166 174 199 13 61 83 142 158 185 159 193 203 206 186 181 183
187 187 183 184 185 188 185 184 188 191 194 185 195 185 186 165 150 189 198 196 183 180 183 169 156 155 137 158 175 148 149 97 101 42 51 97 287 226 199 214 180 212 213 193 197
188 191 183 183 186 190 189 187 195 184 194 179 191 184 175 175 212 162 175 180 184 179 178 161 165 176 196 186 122 117 196 73 131 30 144 270 252 241 251 236 243 255 194 205 209
185 190 188 187 188 189 188 193 190 194 183 181 189 173 182 203 235 189 159 181 182 177 178 165 155 172 58 128 122 112 108 183 192 196 233 237 261 278 250 233 236 231 221 211 217
198 190 190 187 197 189 192 191 193 204 189 182 187 158 195 228 228 181 169 178 177 178 177 185 170 169 138 119 129 71 42 322 220 191 194 173 309 230 248 248 220 228 231 225 227
192 198 192 192 196 200 195 195 198 195 190 188 188 156 210 215 216 181 179 164 166 180 190 179 179 147 128 131 82 105 58 34 291 154 179 125 271 289 289 220 224 226 231 228 232
195 191 201 202 199 208 205 202 207 194 199 189 182 161 236 203 192 180 185 168 150 159 157 151 153 137 132 100 32 335 203 203 296 185 127 157 266 254 19 357 244 241 247 247 245
187 188 199 200 204 206 216 203 202 199 194 174 177 165 212 196 187 176 177 169 143 139 129 143 122 86 43 90 192 200 222 282 215 233 145 202 256 278 287 287 275 270 261 260 247
184 184 188 186 194 197 198 181 168 174 193 189 173 122 155 170 167 178 172 161 148 147 132 114 92 188 209 190 174 128 135 348 304 227 159 227 264 268 274 283 272 266 257 253 252
190 187 189 183 181 180 173 158 153 145 178 210 203 182 158 166 148 179 169 167 157 171 115 43 205 225 210 197 200 183 168 275 333 175 162 272 272 264 256 258 261 262 263 257 258
185 195 193 180 178 170 163 163 160 162 146 205 218 209 192 185 169 183 181 161 146 149 167 152 225 192 162 136 124 191 170 239 223 344 289 346 288 291 290 258 288 270 268 269 262
184 196 194 187 174 178 167 165 159 159 96 220 199 193 188 169 184 167 180 171 179 180 168 214 233 146 158 184 145 207 198 233 243 70 244 81 289 286 264 277 290 284 275 260 269
154 166 183 169 175 167 171 172 165 164 162 126 142 170 163 173 145 174 180 182 165 180 125 234 167 157 150 202 152 210 169 134 105 121 33 313 227 274 265 274 265 281 284 304 303
192 190 191 182 160 171 163 166 159 69 233 144 131 157 127 139 110 124 158 138 135 82 79 169 116 128 180 50 226 154 73 40 38 72 291 204 193 277 239 219 274 31 66 75 24
203 204 193 209 218 203 168 151 89 165 275 181 165 166 163 157 133 148 153 166 156 132 206 171 200 132 134 78 7 115 94 334 335 356 240 328 233 241 269 249 254 352 27 12 349
202 203 198 210 175 202 176 119 188 187 207 148 135 134 172 146 187 170 135 172 262 149 129 171 266 162 191 176 175 194 162 163 204 207 270 341 248 266 241 268 65 356 334 3 15
187 191 206 195 179 187 179 152 200 185 212 143 105 128 209 161 142 139 181 193 191 179 168 163 244 83 131 147 151 208 211 171 82 44 39 239 289 290 260 295 330 345 39 38 12
170 168 193 192 171 183 159 175 196 231 137 169 163 192 168 167 133 163 174 211 194 176 184 201 154 1 37 106 24 134 166 94 7 155 248 271 280 226 300 351 45 46 26 13 15
165 154 187 187 178 182 205 189 193 249 41 151 203 221 81 145 148 190 189 332 150 154 179 162 114 303 106 196 176 118 215 174 150 155 178 277 260 222 168 135 110 32 19 3 347
139 120 169 175 178 188 179 173 343 156 214 124 248 157 131 132 179 242 187 28 359 111 145 202 131 172 206 214 180 155 187 165 150 241 229 162 265 152 120 97 30 356 349 340 337
158 126 120 177 194 191 150 214 89 223 165 156 215 207 49 126 217 176 97 9 59 52 105 170 101 56 350 13 355 174 204 198 159 90 229 141 262 170 26 343 341 343 340 342 345
169 143 176 191 195 131 157 192 207 218 246 177 156 212 117 123 126 351 104 12 52 97 71 76 113 162 172 110 39 13 344 17 57 157 260 234 277 273 335 324 320 322 321 321 321
195 232 194 186 237 205 34 224 191 206 197 192 222 204 151 185 253 189 124 134 71 129 52 86 195 192 221 162 137 228 254 275 267 252 250 285 303 292 305 307 304 311 308 318 320
182 199 180 141 147 173 220 229 206 197 166 203 161 184 196 209 173 109 177 167 173 105 106 28 163 357 302 274 208 228 215 222 240 248 256 265 262 279 284 289 297 298 310 318 335
211 188 113 194 151 143 218 172 174 167 239 186 186 187 190 207 150 111 114 103 121 143 130 133 141 123 265 126 93 295 242 216 225 221 228 248 254 264 280 292 336 330 13 3 348